"Pseudo-MPEC" for MOK0002

Created 2026 Mar 18 7:35:25 UT using Find_Orb

Click here for an explanation of pseudo-MPECs

 
 Astrometry: 
     MOK0002*KB2026 02 25.67664408 39 56.861+56 40 24.38   ~2Q7Z 18.3 VqNEOCPM67
     MOK0002 KB2026 02 25.68134308 39 57.106+56 40 26.22   ~2Q7Z 18.4 VqNEOCPM67
     MOK0002 KB2026 02 25.68622708 39 57.461+56 40 27.70   ~2Q7Z 18.4 VqNEOCPM67

Station data:
(M67) Kolobov Observatory, Magnitogorsk  (N53.805388 E58.636310).

Orbital elements:  MOK0002
   Perihelion 2026 Feb 6.863010 +/- 43.4 TT = 20:42:44.0 (JD 2461078.363010)
Epoch 2026 Feb 26.0 TT = JDT 2461097.5   Earth MOID: 0.2986      AutoNEOCP
M   9.160640555 +/- 32              (J2000 ecliptic)
n   0.478687645 +/- 0.399           Peri.   31.270686 +/- 90
a   1.618457265 +/- 0.898           Node   102.575978 +/- 40
e   0.21930723 +/- 0.259            Incl.   15.154751 +/- 15
P   2.059/752.042d         H 18.32  G  0.15   U 12.1  SR
q 1.263517872 +/- 0.406    Q 1.973396658 +/- 52.6
From 3 observations 2026 Feb. 25 (13.8 min); mean residual 0".15
Residuals in arcseconds: 
260225 M67  .14+  .07-    260225 M67  .27-  .14+    260225 M67  .13+  .07-    

Ephemerides (geocentric):
Date (UTC) HH   RA             Dec           delta  r     elong  mag " sig PA
---- --------  ------------   ------------  ------ ------ -----  --- --------
2026 03 18 08  09 14 55.439   +55 20 43.77  .48884 1.2942 117.2 19.0  26d  39
2026 03 18 09  09 15 00.613   +55 20 14.81  .48904 1.2943 117.2 19.0  26d  39
2026 03 18 10  09 15 05.790   +55 19 45.79  .48924 1.2943 117.2 19.0  26d  39
2026 03 18 11  09 15 10.969   +55 19 16.70  .48943 1.2944 117.2 19.0  26d  39
2026 03 18 12  09 15 16.150   +55 18 47.55  .48963 1.2945 117.2 19.0  26d  39
2026 03 18 13  09 15 21.334   +55 18 18.32  .48983 1.2945 117.2 19.0  26d  39
2026 03 18 14  09 15 26.521   +55 17 49.04  .49003 1.2946 117.1 19.0  26d  39
2026 03 18 15  09 15 31.710   +55 17 19.68  .49023 1.2947 117.1 19.0  26d  39
2026 03 18 16  09 15 36.901   +55 16 50.26  .49043 1.2947 117.1 19.0  26d  39
2026 03 18 17  09 15 42.095   +55 16 20.78  .49063 1.2948 117.1 19.0  27d  39
2026 03 18 18  09 15 47.292   +55 15 51.23  .49083 1.2948 117.1 19.0  27d  39
2026 03 18 19  09 15 52.491   +55 15 21.62  .49103 1.2949 117.1 19.0  27d  39
2026 03 18 20  09 15 57.692   +55 14 51.93  .49123 1.2950 117.1 19.0  27d  39
2026 03 18 21  09 16 02.896   +55 14 22.19  .49143 1.2950 117.0 19.0  27d  39
2026 03 18 22  09 16 08.102   +55 13 52.38  .49163 1.2951 117.0 19.0  27d  39
2026 03 18 23  09 16 13.311   +55 13 22.50  .49183 1.2952 117.0 19.0  27d  39
2026 03 19 00  09 16 18.522   +55 12 52.56  .49203 1.2952 117.0 19.0  27d  39
2026 03 19 01  09 16 23.735   +55 12 22.55  .49223 1.2953 117.0 19.0  27d  39
2026 03 19 02  09 16 28.951   +55 11 52.48  .49243 1.2954 117.0 19.0  27d  39
2026 03 19 03  09 16 34.169   +55 11 22.35  .49263 1.2954 116.9 19.0  27d  39
2026 03 19 04  09 16 39.390   +55 10 52.15  .49283 1.2955 116.9 19.0  27d  39
2026 03 19 05  09 16 44.613   +55 10 21.88  .49303 1.2955 116.9 19.0  27d  39
2026 03 19 06  09 16 49.839   +55 09 51.55  .49323 1.2956 116.9 19.0  27d  39
2026 03 19 07  09 16 55.067   +55 09 21.15  .49343 1.2957 116.9 19.0  27d  39
2026 03 19 08  09 17 00.297   +55 08 50.69  .49363 1.2957 116.9 19.0  27d  39
2026 03 19 09  09 17 05.529   +55 08 20.17  .49383 1.2958 116.8 19.0  27d  39
2026 03 19 10  09 17 10.764   +55 07 49.58  .49403 1.2959 116.8 19.0  27d  39
2026 03 19 11  09 17 16.002   +55 07 18.93  .49424 1.2959 116.8 19.0  27d  39
2026 03 19 12  09 17 21.241   +55 06 48.21  .49444 1.2960 116.8 19.0  27d  39
2026 03 19 13  09 17 26.483   +55 06 17.43  .49464 1.2961 116.8 19.0  27d  39
2026 03 19 14  09 17 31.728   +55 05 46.58  .49484 1.2961 116.8 19.0  27d  39
2026 03 19 15  09 17 36.974   +55 05 15.67  .49504 1.2962 116.8 19.0  27d  39
2026 03 19 16  09 17 42.223   +55 04 44.70  .49524 1.2963 116.7 19.0  27d  39
2026 03 19 17  09 17 47.475   +55 04 13.66  .49544 1.2963 116.7 19.0  27d  39
2026 03 19 18  09 17 52.728   +55 03 42.56  .49564 1.2964 116.7 19.0  27d  39
2026 03 19 19  09 17 57.984   +55 03 11.40  .49584 1.2965 116.7 19.0  27d  39
2026 03 19 20  09 18 03.242   +55 02 40.17  .49604 1.2965 116.7 19.0  27d  39
2026 03 19 21  09 18 08.503   +55 02 08.87  .49624 1.2966 116.7 19.0  27d  39
2026 03 19 22  09 18 13.765   +55 01 37.52  .49644 1.2966 116.6 19.0  27d  39
2026 03 19 23  09 18 19.030   +55 01 06.10  .49665 1.2967 116.6 19.0  27d  39
2026 03 20 00  09 18 24.297   +55 00 34.61  .49685 1.2968 116.6 19.0  27d  39
2026 03 20 01  09 18 29.567   +55 00 03.07  .49705 1.2968 116.6 19.0  27d  39
2026 03 20 02  09 18 34.839   +54 59 31.46  .49725 1.2969 116.6 19.0  27d  39
2026 03 20 03  09 18 40.113   +54 58 59.78  .49745 1.2970 116.6 19.0  27d  39
2026 03 20 04  09 18 45.389   +54 58 28.05  .49765 1.2970 116.6 19.0  27d  39
2026 03 20 05  09 18 50.667   +54 57 56.25  .49785 1.2971 116.5 19.1  27d  39
2026 03 20 06  09 18 55.948   +54 57 24.38  .49806 1.2972 116.5 19.1  27d  39
2026 03 20 07  09 19 01.231   +54 56 52.46  .49826 1.2972 116.5 19.1  27d  39